Location: Home
(42.5358°N, 72.7383°W)
Time: 22:12:43
(UTC-05:00)

Vanguard 2 Rocket - Pass Details

Date: 07 December 2021
Orbit: 554 x 3325 km, 32.9° (Epoch: 21 January)

Event Time Altitude Azimuth Distance (km) Brightness Sun altitude
Rises 18:14:57 0° 248° (WSW) 3,155 11.2 -20.9°
Reaches altitude 10° 18:17:04 10° 240° (WSW) 2,428 10.1 -21.3°
Maximum altitude 18:22:23 39° 172° (S) 1,613 8.1 -22.2°
Enters shadow 18:26:32 25° 122° (ESE) 2,521 8.7 -23.0°
Drops below altitude 10° 18:31:05 10° 108° (ESE) 3,993 - -23.8°
Sets 18:35:36 0° 102° (ESE) 5,480 - -24.6°
